Time,TemperatureF,DewpointF,PressureIn,WindDirection,WindDirectionDegrees,WindSpeedMPH,WindSpeedGustMPH,Humidity,HourlyPrecipIn,Conditions,Clouds,dailyrainin,SoftwareType,DateUTC
2013-09-13 00:02:00,61.0,56.4,29.78,NW,315,0.0,0.0,85,0.00,RA,,0.00,WeatherDisplay:10.37,2013-09-13 04:02:00,
2013-09-13 00:03:00,60.8,56.3,29.78,NW,315,0.0,0.0,85,0.00,RA,,0.00,WeatherDisplay:10.37,2013-09-13 04:03:00,
2013-09-13 00:05:00,60.8,56.3,29.79,NW,315,0.0,0.0,85,0.00,RA,,0.00,WeatherDisplay:10.37,2013-09-13 04:05:00,
2013-09-13 00:06:00,60.8,56.6,29.79,NW,315,0.0,0.0,86,0.00,RA,,0.00,WeatherDisplay:10.37,2013-09-13 04:06:00,
2013-09-13 00:09:00,60.6,56.1,29.79,NW,315,0.3,0.3,85,0.00,RA,,0.00,WeatherDisplay:10.37,2013-09-13 04:09:00,
2013-09-13 00:14:00,60.6,56.4,29.79,NW,315,0.6,0.6,86,0.00,CLR,,0.00,WeatherDisplay:10.37,2013-09-13 04:14:00,
2013-09-13 00:19:00,60.4,56.2,29.78,NW,315,0.0,0.0,86,0.00,CLR,,0.00,WeatherDisplay:10.37,2013-09-13 04:19:00,
2013-09-13 00:24:00,60.3,56.1,29.78,NW,315,0.0,0.0,86,0.00,CLR,,0.00,WeatherDisplay:10.37,2013-09-13 04:24:00,
2013-09-13 00:26:00,60.1,55.9,29.78,NW,315,0.0,0.0,86,0.00,CLR,,0.00,WeatherDisplay:10.37,2013-09-13 04:26:00,
2013-09-13 00:31:00,60.1,55.9,29.78,NNW,338,0.9,1.1,86,0.00,CLR,,0.00,WeatherDisplay:10.37,2013-09-13 04:31:00,
2013-09-13 00:36:00,60.1,55.9,29.77,WNW,292,1.5,2.3,86,0.00,CLR,,0.00,WeatherDisplay:10.37,2013-09-13 04:36:00,
2013-09-13 00:41:00,60.1,55.9,29.77,WNW,292,0.3,1.1,86,0.00,CLR,,0.00,WeatherDisplay:10.37,2013-09-13 04:41:00,
2013-09-13 00:46:00,60.1,55.9,29.77,NNW,338,1.2,2.3,86,0.00,CLR,,0.00,WeatherDisplay:10.37,2013-09-13 04:46:00,
2013-09-13 00:51:00,59.9,55.7,29.77,NW,315,0.0,1.1,86,0.00,CLR,,0.00,WeatherDisplay:10.37,2013-09-13 04:51:00,
2013-09-13 00:56:00,59.7,55.5,29.77,NE,45,0.0,0.0,86,0.00,CLR,,0.00,WeatherDisplay:10.37,2013-09-13 04:56:00,
2013-09-13 01:01:00,59.5,55.3,29.77,NE,45,0.0,1.1,86,0.00,CLR,,0.00,WeatherDisplay:10.37,2013-09-13 05:01:00,
2013-09-13 01:06:00,59.5,55.3,29.77,NE,45,0.0,0.0,86,0.00,CLR,,0.00,WeatherDisplay:10.37,2013-09-13 05:06:00,
2013-09-13 01:11:00,59.5,55.3,29.77,NE,45,0.0,0.0,86,0.00,CLR,,0.00,WeatherDisplay:10.37,2013-09-13 05:11:00,
2013-09-13 01:16:00,59.4,55.2,29.77,NE,45,0.0,0.0,86,0.00,CLR,,0.00,WeatherDisplay:10.37,2013-09-13 05:16:00,
2013-09-13 01:21:00,59.4,55.2,29.77,NE,45,0.3,1.1,86,0.00,CLR,,0.00,WeatherDisplay:10.37,2013-09-13 05:21:00,
2013-09-13 01:26:00,58.8,54.6,29.77,NE,45,0.0,0.0,86,0.00,CLR,,0.00,WeatherDisplay:10.37,2013-09-13 05:26:00,
2013-09-13 01:31:00,58.8,54.6,29.77,NNW,338,0.0,1.1,86,0.00,CLR,,0.00,WeatherDisplay:10.37,2013-09-13 05:31:00,
2013-09-13 01:36:00,58.6,54.5,29.76,North,0,0.0,0.0,86,0.00,CLR,,0.00,WeatherDisplay:10.37,2013-09-13 05:36:00,
2013-09-13 01:41:00,58.5,54.3,29.76,North,0,0.0,1.1,86,0.00,CLR,,0.00,WeatherDisplay:10.37,2013-09-13 05:41:00,
2013-09-13 01:46:00,58.3,54.4,29.76,North,0,0.0,0.0,87,0.00,CLR,,0.00,WeatherDisplay:10.37,2013-09-13 05:46:00,
2013-09-13 01:51:00,58.3,54.4,29.77,NW,315,0.9,2.3,87,0.00,CLR,,0.00,WeatherDisplay:10.37,2013-09-13 05:51:00,
2013-09-13 01:56:00,58.1,54.2,29.78,NW,315,0.6,1.1,87,0.00,CLR,,0.00,WeatherDisplay:10.37,2013-09-13 05:56:00,
2013-09-13 02:01:00,57.9,54.1,29.78,NW,315,1.8,1.8,87,0.00,CLR,,0.00,WeatherDisplay:10.37,2013-09-13 06:01:00,
2013-09-13 02:06:00,58.1,54.2,29.78,NNW,338,0.6,2.3,87,0.00,CLR,,0.00,WeatherDisplay:10.37,2013-09-13 06:06:00,
2013-09-13 02:11:00,57.9,54.1,29.79,NW,315,1.8,1.8,87,0.00,CLR,,0.00,WeatherDisplay:10.37,2013-09-13 06:11:00,
2013-09-13 02:16:00,58.1,54.2,29.79,West,270,0.6,1.1,87,0.00,CLR,,0.00,WeatherDisplay:10.37,2013-09-13 06:16:00,
2013-09-13 02:21:00,58.1,54.2,29.78,NNW,338,0.9,1.1,87,0.00,CLR,,0.00,WeatherDisplay:10.37,2013-09-13 06:21:00,
2013-09-13 02:26:00,58.1,54.2,29.78,NNW,338,0.3,0.3,87,0.00,CLR,,0.00,WeatherDisplay:10.37,2013-09-13 06:26:00,
2013-09-13 02:31:00,58.1,54.2,29.79,NW,315,0.6,4.6,87,0.00,CLR,,0.00,WeatherDisplay:10.37,2013-09-13 06:31:00,
2013-09-13 02:36:00,58.3,54.4,29.79,NW,315,0.6,2.3,87,0.00,CLR,,0.00,WeatherDisplay:10.37,2013-09-13 06:36:00,
2013-09-13 02:41:00,58.3,54.4,29.79,NW,315,2.4,2.4,87,0.00,CLR,,0.00,WeatherDisplay:10.37,2013-09-13 06:41:00,
2013-09-13 02:46:00,58.3,54.4,29.79,WNW,292,2.8,3.5,87,0.00,CLR,,0.00,WeatherDisplay:10.37,2013-09-13 06:46:00,
2013-09-13 02:51:00,58.3,54.4,29.79,NW,315,2.5,2.5,87,0.00,CLR,,0.00,WeatherDisplay:10.37,2013-09-13 06:51:00,
2013-09-13 02:56:00,58.3,54.4,29.79,NNW,338,1.8,3.5,87,0.00,CLR,,0.00,WeatherDisplay:10.37,2013-09-13 06:56:00,
2013-09-13 03:01:00,58.1,54.2,29.79,West,270,0.6,2.3,87,0.00,CLR,,0.00,WeatherDisplay:10.37,2013-09-13 07:01:00,
2013-09-13 03:06:00,58.1,54.2,29.79,NW,315,2.8,2.8,87,0.00,CLR,,0.00,WeatherDisplay:10.37,2013-09-13 07:06:00,
2013-09-13 03:11:00,57.9,54.1,29.79,NW,315,0.9,1.1,87,0.00,CLR,,0.00,WeatherDisplay:10.37,2013-09-13 07:11:00,
2013-09-13 03:16:00,57.9,54.1,29.80,NNW,338,0.6,1.1,87,0.00,CLR,,0.00,WeatherDisplay:10.37,2013-09-13 07:16:00,
2013-09-13 03:21:00,57.9,54.1,29.80,NNW,338,0.3,0.0,87,0.00,CLR,,0.00,WeatherDisplay:10.37,2013-09-13 07:21:00,
2013-09-13 03:26:00,57.7,53.9,29.80,NW,315,1.8,1.8,87,0.00,CLR,,0.00,WeatherDisplay:10.37,2013-09-13 07:26:00,
2013-09-13 03:31:00,57.7,53.9,29.79,NNE,22,1.5,1.5,87,0.00,CLR,,0.00,WeatherDisplay:10.37,2013-09-13 07:31:00,
2013-09-13 03:36:00,57.6,53.7,29.78,NW,315,0.0,0.0,87,0.00,CLR,,0.00,WeatherDisplay:10.37,2013-09-13 07:36:00,
2013-09-13 03:41:00,57.6,53.7,29.77,NW,315,0.3,0.3,87,0.00,CLR,,0.00,WeatherDisplay:10.37,2013-09-13 07:41:00,
2013-09-13 03:46:00,57.6,53.7,29.77,NW,315,2.1,0.0,87,0.00,CLR,,0.00,WeatherDisplay:10.37,2013-09-13 07:46:00,
2013-09-13 03:51:00,57.4,53.5,29.77,NW,315,1.2,2.3,87,0.00,CLR,,0.00,WeatherDisplay:10.37,2013-09-13 07:51:00,
2013-09-13 03:56:00,57.2,53.0,29.78,NW,315,0.9,1.1,86,0.00,CLR,,0.00,WeatherDisplay:10.37,2013-09-13 07:56:00,
2013-09-13 04:01:00,57.2,53.0,29.77,NW,315,0.3,0.3,86,0.00,CLR,,0.00,WeatherDisplay:10.37,2013-09-13 08:01:00,
2013-09-13 04:06:00,57.2,53.0,29.77,NW,315,0.0,0.0,86,0.00,CLR,,0.00,WeatherDisplay:10.37,2013-09-13 08:06:00,
2013-09-13 04:11:00,57.2,53.0,29.77,NW,315,0.0,0.0,86,0.00,CLR,,0.00,WeatherDisplay:10.37,2013-09-13 08:11:00,
2013-09-13 04:16:00,57.0,52.9,29.77,NW,315,0.0,0.0,86,0.00,CLR,,0.00,WeatherDisplay:10.37,2013-09-13 08:16:00,
2013-09-13 04:21:00,57.0,52.9,29.77,NW,315,0.0,0.0,86,0.00,CLR,,0.00,WeatherDisplay:10.37,2013-09-13 08:21:00,
2013-09-13 04:26:00,56.8,52.7,29.77,NW,315,0.3,0.0,86,0.00,CLR,,0.00,WeatherDisplay:10.37,2013-09-13 08:26:00,
2013-09-13 04:31:00,56.7,52.5,29.77,NW,315,0.3,0.3,86,0.00,CLR,,0.00,WeatherDisplay:10.37,2013-09-13 08:31:00,
2013-09-13 04:36:00,56.7,52.5,29.77,NW,315,0.0,0.0,86,0.00,CLR,,0.00,WeatherDisplay:10.37,2013-09-13 08:36:00,
2013-09-13 04:41:00,56.5,52.3,29.77,NW,315,0.0,0.0,86,0.00,CLR,,0.00,WeatherDisplay:10.37,2013-09-13 08:41:00,
2013-09-13 04:46:00,56.5,52.3,29.77,NW,315,0.0,0.0,86,0.00,CLR,,0.00,WeatherDisplay:10.37,2013-09-13 08:46:00,
2013-09-13 04:51:00,56.5,52.3,29.76,NW,315,0.0,0.0,86,0.00,CLR,,0.00,WeatherDisplay:10.37,2013-09-13 08:51:00,
2013-09-13 04:56:00,56.1,52.0,29.76,NW,315,0.0,0.0,86,0.00,CLR,,0.00,WeatherDisplay:10.37,2013-09-13 08:56:00,
2013-09-13 05:01:00,55.8,51.6,29.76,NW,315,0.0,0.0,86,0.00,CLR,,0.00,WeatherDisplay:10.37,2013-09-13 09:01:00,
2013-09-13 05:06:00,55.6,51.5,29.75,NW,315,0.0,0.0,86,0.00,CLR,,0.00,WeatherDisplay:10.37,2013-09-13 09:06:00,
2013-09-13 05:11:00,55.6,51.5,29.76,NW,315,0.0,0.0,86,0.00,CLR,,0.00,WeatherDisplay:10.37,2013-09-13 09:11:00,
2013-09-13 05:16:00,55.4,51.3,29.75,NW,315,0.0,0.0,86,0.00,CLR,,0.00,WeatherDisplay:10.37,2013-09-13 09:16:00,
2013-09-13 05:21:00,55.0,50.9,29.74,NW,315,0.0,0.0,86,0.00,CLR,,0.00,WeatherDisplay:10.37,2013-09-13 09:21:00,
2013-09-13 05:26:00,54.7,50.6,29.75,NW,315,0.0,0.0,86,0.00,CLR,,0.00,WeatherDisplay:10.37,2013-09-13 09:26:00,
2013-09-13 05:31:00,54.7,50.6,29.75,NW,315,0.0,0.0,86,0.00,CLR,,0.00,WeatherDisplay:10.37,2013-09-13 09:31:00,
2013-09-13 05:36:00,54.3,50.2,29.76,NW,315,0.0,0.0,86,0.00,CLR,,0.00,WeatherDisplay:10.37,2013-09-13 09:36:00,
2013-09-13 05:41:00,54.0,49.9,29.76,NW,315,0.0,0.0,86,0.00,CLR,,0.00,WeatherDisplay:10.37,2013-09-13 09:41:00,
2013-09-13 05:46:00,53.8,49.7,29.76,NW,315,0.0,0.0,86,0.00,CLR,,0.00,WeatherDisplay:10.37,2013-09-13 09:46:00,
2013-09-13 05:51:00,54.0,49.9,29.76,NW,315,0.0,0.0,86,0.00,CLR,,0.00,WeatherDisplay:10.37,2013-09-13 09:51:00,
2013-09-13 05:56:00,54.0,49.9,29.76,WNW,292,0.0,0.0,86,0.00,CLR,,0.00,WeatherDisplay:10.37,2013-09-13 09:56:00,
2013-09-13 06:01:00,54.0,49.9,29.77,NW,315,0.6,1.1,86,0.00,CLR,,0.00,WeatherDisplay:10.37,2013-09-13 10:01:00,
2013-09-13 06:06:00,54.1,50.0,29.77,NW,315,0.3,0.3,86,0.00,CLR,,0.00,WeatherDisplay:10.37,2013-09-13 10:06:00,
2013-09-13 06:11:00,54.1,50.0,29.78,WNW,292,2.5,2.5,86,0.00,CLR,,0.00,WeatherDisplay:10.37,2013-09-13 10:11:00,
2013-09-13 06:16:00,54.3,50.2,29.78,West,270,0.6,0.0,86,0.00,CLR,,0.00,WeatherDisplay:10.37,2013-09-13 10:16:00,
2013-09-13 06:21:00,54.3,50.2,29.78,NNW,338,4.0,4.0,86,0.00,CLR,,0.00,WeatherDisplay:10.37,2013-09-13 10:21:00,
2013-09-13 06:26:00,54.5,50.4,29.78,NW,315,0.0,1.1,86,0.00,CLR,,0.00,WeatherDisplay:10.37,2013-09-13 10:26:00,
2013-09-13 06:31:00,54.5,50.4,29.78,West,270,0.0,2.3,86,0.00,CLR,,0.00,WeatherDisplay:10.37,2013-09-13 10:31:00,
2013-09-13 06:36:00,54.5,50.4,29.79,NW,315,0.0,0.0,86,0.00,CLR,,0.00,WeatherDisplay:10.37,2013-09-13 10:36:00,
2013-09-13 06:41:00,54.3,50.2,29.79,NW,315,0.0,1.1,86,0.00,CLR,,0.00,WeatherDisplay:10.37,2013-09-13 10:41:00,
2013-09-13 06:46:00,54.3,50.2,29.79,NW,315,0.6,0.6,86,0.00,CLR,,0.00,WeatherDisplay:10.37,2013-09-13 10:46:00,
2013-09-13 06:51:00,54.3,50.2,29.79,NW,315,0.0,1.1,86,0.00,CLR,,0.00,WeatherDisplay:10.37,2013-09-13 10:51:00,
2013-09-13 06:56:00,54.3,50.5,29.79,NW,315,0.0,0.0,87,0.00,CLR,,0.00,WeatherDisplay:10.37,2013-09-13 10:56:00,
2013-09-13 07:01:00,54.3,50.2,29.79,NW,315,0.0,0.0,86,0.00,CLR,,0.00,WeatherDisplay:10.37,2013-09-13 11:01:00,
2013-09-13 07:05:00,54.3,50.2,29.79,NW,315,0.0,0.0,86,0.00,CLR,,0.00,WeatherDisplay:10.37,2013-09-13 11:05:00,
2013-09-13 07:10:00,54.3,50.5,29.80,NW,315,0.0,0.0,87,0.00,CLR,,0.00,WeatherDisplay:10.37,2013-09-13 11:10:00,
2013-09-13 07:15:00,54.5,50.7,29.80,South,180,0.0,0.0,87,0.00,CLR,,0.00,WeatherDisplay:10.37,2013-09-13 11:15:00,
2013-09-13 07:20:00,54.5,50.7,29.80,South,180,0.6,0.6,87,0.00,CLR,,0.00,WeatherDisplay:10.37,2013-09-13 11:20:00,
2013-09-13 07:25:00,54.5,50.7,29.80,SW,225,0.6,1.1,87,0.00,CLR,,0.00,WeatherDisplay:10.37,2013-09-13 11:25:00,
2013-09-13 07:30:00,54.5,50.7,29.81,SW,225,0.6,1.1,87,0.00,CLR,,0.00,WeatherDisplay:10.37,2013-09-13 11:30:00,
2013-09-13 07:35:00,54.5,50.7,29.81,NW,315,0.6,2.3,87,0.00,CLR,,0.00,WeatherDisplay:10.37,2013-09-13 11:35:00,
2013-09-13 07:40:00,54.3,50.5,29.81,WNW,292,0.6,1.1,87,0.00,CLR,,0.00,WeatherDisplay:10.37,2013-09-13 11:40:00,
2013-09-13 07:45:00,54.5,50.4,29.81,WNW,292,1.2,1.2,86,0.00,CLR,,0.00,WeatherDisplay:10.37,2013-09-13 11:45:00,
2013-09-13 07:50:00,54.5,50.4,29.81,WNW,292,2.4,2.4,86,0.00,CLR,,0.00,WeatherDisplay:10.37,2013-09-13 11:50:00,
2013-09-13 07:55:00,54.5,50.4,29.81,West,270,0.6,1.1,86,0.00,CLR,,0.00,WeatherDisplay:10.37,2013-09-13 11:55:00,
2013-09-13 08:00:00,54.3,50.2,29.82,West,270,2.1,3.5,86,0.00,CLR,,0.00,WeatherDisplay:10.37,2013-09-13 12:00:00,
2013-09-13 08:05:00,54.3,50.2,29.82,NW,315,1.8,2.3,86,0.00,CLR,,0.00,WeatherDisplay:10.37,2013-09-13 12:05:00,
2013-09-13 08:10:00,54.3,50.2,29.82,NW,315,0.6,1.1,86,0.00,CLR,,0.00,WeatherDisplay:10.37,2013-09-13 12:10:00,
2013-09-13 08:15:00,54.3,50.2,29.82,WNW,292,1.8,2.3,86,0.00,CLR,,0.00,WeatherDisplay:10.37,2013-09-13 12:15:00,
2013-09-13 08:20:00,54.5,50.4,29.82,WSW,248,1.8,2.3,86,0.00,CLR,,0.00,WeatherDisplay:10.37,2013-09-13 12:20:00,
2013-09-13 08:25:00,54.7,50.6,29.82,NW,315,2.1,4.6,86,0.00,CLR,,0.00,WeatherDisplay:10.37,2013-09-13 12:25:00,
2013-09-13 08:30:00,54.7,50.9,29.82,WNW,292,1.5,1.5,87,0.00,CLR,,0.00,WeatherDisplay:10.37,2013-09-13 12:30:00,
2013-09-13 08:35:00,54.7,50.9,29.82,NW,315,2.4,2.4,87,0.00,CLR,,0.00,WeatherDisplay:10.37,2013-09-13 12:35:00,
2013-09-13 08:40:00,54.7,50.9,29.82,NNW,338,2.4,2.4,87,0.00,CLR,,0.00,WeatherDisplay:10.37,2013-09-13 12:40:00,
2013-09-13 08:45:00,54.7,50.9,29.82,NNW,338,1.5,4.6,87,0.00,CLR,,0.00,WeatherDisplay:10.37,2013-09-13 12:45:00,
2013-09-13 08:50:00,54.7,50.6,29.82,NNW,338,1.8,1.8,86,0.00,CLR,,0.00,WeatherDisplay:10.37,2013-09-13 12:50:00,
2013-09-13 08:55:00,54.9,50.8,29.82,West,270,3.1,3.5,86,0.00,CLR,,0.00,WeatherDisplay:10.37,2013-09-13 12:55:00,
2013-09-13 09:00:00,54.9,50.8,29.82,West,270,1.5,1.5,86,0.00,CLR,,0.00,WeatherDisplay:10.37,2013-09-13 13:00:00,
2013-09-13 09:05:00,55.0,50.9,29.82,NW,315,3.4,3.4,86,0.00,CLR,,0.00,WeatherDisplay:10.37,2013-09-13 13:05:00,
2013-09-13 09:10:00,55.0,50.9,29.82,NNE,22,2.8,3.5,86,0.00,CLR,,0.00,WeatherDisplay:10.37,2013-09-13 13:10:00,
2013-09-13 09:15:00,55.2,51.1,29.82,WNW,292,1.8,4.6,86,0.00,CLR,,0.00,WeatherDisplay:10.37,2013-09-13 13:15:00,
2013-09-13 09:20:00,55.2,51.1,29.82,NW,315,7.6,7.6,86,0.00,CLR,,0.00,WeatherDisplay:10.37,2013-09-13 13:20:00,
2013-09-13 09:25:00,55.2,51.1,29.83,NW,315,1.5,4.6,86,0.00,CLR,,0.00,WeatherDisplay:10.37,2013-09-13 13:25:00,
2013-09-13 09:30:00,55.0,50.6,29.82,WNW,292,2.5,2.5,85,0.00,CLR,,0.00,WeatherDisplay:10.37,2013-09-13 13:30:00,
2013-09-13 09:35:00,55.0,50.6,29.82,NW,315,4.3,4.6,85,0.00,CLR,,0.00,WeatherDisplay:10.37,2013-09-13 13:35:00,
2013-09-13 09:40:00,55.2,51.1,29.83,North,0,1.2,2.3,86,0.00,CLR,,0.00,WeatherDisplay:10.37,2013-09-13 13:40:00,
2013-09-13 09:45:00,55.2,50.8,29.83,North,0,1.2,4.6,85,0.00,CLR,,0.00,WeatherDisplay:10.37,2013-09-13 13:45:00,
2013-09-13 09:50:00,55.2,50.8,29.83,NW,315,1.5,1.5,85,0.00,CLR,,0.00,WeatherDisplay:10.37,2013-09-13 13:50:00,
2013-09-13 09:55:00,55.4,51.0,29.83,NW,315,1.8,2.3,85,0.00,CLR,,0.00,WeatherDisplay:10.37,2013-09-13 13:55:00,
2013-09-13 10:00:00,55.4,51.0,29.83,WNW,292,2.1,2.3,85,0.00,CLR,,0.00,WeatherDisplay:10.37,2013-09-13 14:00:00,
2013-09-13 10:05:00,55.4,51.0,29.83,West,270,1.2,4.6,85,0.00,CLR,,0.00,WeatherDisplay:10.37,2013-09-13 14:05:00,
2013-09-13 10:10:00,55.4,51.0,29.84,NNW,338,0.6,2.3,85,0.00,CLR,,0.00,WeatherDisplay:10.37,2013-09-13 14:10:00,
2013-09-13 10:15:00,55.4,51.0,29.83,NNW,338,1.5,1.5,85,0.00,CLR,,0.00,WeatherDisplay:10.37,2013-09-13 14:15:00,
2013-09-13 10:20:00,55.4,50.6,29.84,WNW,292,0.0,2.3,84,0.00,CLR,,0.00,WeatherDisplay:10.37,2013-09-13 14:20:00,
2013-09-13 10:25:00,55.4,50.6,29.84,West,270,4.0,4.6,84,0.00,CLR,,0.00,WeatherDisplay:10.37,2013-09-13 14:25:00,
2013-09-13 10:30:00,55.6,50.8,29.84,NW,315,0.3,4.6,84,0.00,CLR,,0.00,WeatherDisplay:10.37,2013-09-13 14:30:00,
2013-09-13 10:35:00,55.8,51.0,29.83,West,270,5.8,5.8,84,0.00,CLR,,0.00,WeatherDisplay:10.37,2013-09-13 14:35:00,
2013-09-13 10:40:00,55.8,51.0,29.84,WNW,292,1.5,5.8,84,0.00,CLR,,0.00,WeatherDisplay:10.37,2013-09-13 14:40:00,
2013-09-13 10:45:00,55.8,51.0,29.83,NW,315,2.8,2.8,84,0.00,CLR,,0.00,WeatherDisplay:10.37,2013-09-13 14:45:00,
2013-09-13 10:50:00,55.8,51.0,29.84,West,270,1.5,2.3,84,0.00,CLR,,0.00,WeatherDisplay:10.37,2013-09-13 14:50:00,
2013-09-13 10:55:00,56.1,51.4,29.84,West,270,1.8,2.3,84,0.00,CLR,,0.00,WeatherDisplay:10.37,2013-09-13 14:55:00,
2013-09-13 11:00:00,56.3,51.2,29.84,NNW,338,5.2,5.8,83,0.00,CLR,,0.00,WeatherDisplay:10.37,2013-09-13 15:00:00,
2013-09-13 11:05:00,56.5,51.7,29.84,WNW,292,4.3,4.6,84,0.00,CLR,,0.00,WeatherDisplay:10.37,2013-09-13 15:05:00,
2013-09-13 11:10:00,56.3,50.9,29.84,NW,315,3.1,3.1,82,0.00,CLR,,0.00,WeatherDisplay:10.37,2013-09-13 15:10:00,
2013-09-13 11:15:00,56.1,50.7,29.84,WNW,292,2.1,3.5,82,0.00,CLR,,0.00,WeatherDisplay:10.37,2013-09-13 15:15:00,
2013-09-13 11:20:00,56.1,50.7,29.84,NNW,338,3.7,3.7,82,0.00,CLR,,0.00,WeatherDisplay:10.37,2013-09-13 15:20:00,
2013-09-13 11:25:00,55.9,50.5,29.84,WNW,292,0.6,3.5,82,0.00,CLR,,0.00,WeatherDisplay:10.37,2013-09-13 15:25:00,
2013-09-13 11:30:00,55.9,50.9,29.84,NW,315,0.6,1.1,83,0.00,CLR,,0.00,WeatherDisplay:10.37,2013-09-13 15:30:00,
2013-09-13 11:35:00,55.8,50.7,29.84,NW,315,0.0,2.3,83,0.00,CLR,,0.00,WeatherDisplay:10.37,2013-09-13 15:35:00,
2013-09-13 11:40:00,55.8,50.7,29.84,NNW,338,0.0,1.1,83,0.00,CLR,,0.00,WeatherDisplay:10.37,2013-09-13 15:40:00,
2013-09-13 11:45:00,55.9,50.9,29.84,NNW,338,0.6,2.3,83,0.00,CLR,,0.00,WeatherDisplay:10.37,2013-09-13 15:45:00,
2013-09-13 11:50:00,56.3,51.2,29.84,WNW,292,0.9,3.5,83,0.00,CLR,,0.00,WeatherDisplay:10.37,2013-09-13 15:50:00,
2013-09-13 11:55:00,56.5,51.4,29.84,NW,315,3.1,3.5,83,0.00,CLR,,0.00,WeatherDisplay:10.37,2013-09-13 15:55:00,
2013-09-13 12:00:00,56.8,52.1,29.84,West,270,3.7,3.7,84,0.00,CLR,,0.00,WeatherDisplay:10.37,2013-09-13 16:00:00,
2013-09-13 12:05:00,56.8,51.7,29.84,NW,315,1.2,3.5,83,0.00,CLR,,0.00,WeatherDisplay:10.37,2013-09-13 16:05:00,
2013-09-13 12:10:00,56.8,51.7,29.84,NNW,338,1.5,3.5,83,0.00,CLR,,0.00,WeatherDisplay:10.37,2013-09-13 16:10:00,
2013-09-13 12:15:00,57.0,51.9,29.84,NW,315,4.6,4.6,83,0.00,CLR,,0.00,WeatherDisplay:10.37,2013-09-13 16:15:00,
2013-09-13 12:20:00,56.8,51.7,29.83,NNW,338,0.6,1.1,83,0.00,CLR,,0.00,WeatherDisplay:10.37,2013-09-13 16:20:00,
2013-09-13 12:25:00,57.2,52.1,29.84,NW,315,0.6,0.6,83,0.00,CLR,,0.00,WeatherDisplay:10.37,2013-09-13 16:25:00,
2013-09-13 12:30:00,57.7,52.6,29.83,North,0,1.2,2.3,83,0.00,CLR,,0.00,WeatherDisplay:10.37,2013-09-13 16:30:00,
2013-09-13 12:35:00,58.1,53.0,29.83,NW,315,1.5,1.5,83,0.00,CLR,,0.00,WeatherDisplay:10.37,2013-09-13 16:35:00,
2013-09-13 12:40:00,59.0,53.5,29.82,West,270,1.2,2.3,82,0.00,CLR,,0.00,WeatherDisplay:10.37,2013-09-13 16:40:00,
2013-09-13 12:45:00,59.4,53.5,29.82,NNE,22,2.1,4.6,81,0.00,CLR,,0.00,WeatherDisplay:10.37,2013-09-13 16:45:00,
2013-09-13 12:50:00,59.0,53.2,29.82,NNE,22,1.5,2.3,81,0.00,CLR,,0.00,WeatherDisplay:10.37,2013-09-13 16:50:00,
2013-09-13 12:55:00,58.6,52.8,29.82,North,0,2.4,2.4,81,0.00,CLR,,0.00,WeatherDisplay:10.37,2013-09-13 16:55:00,
2013-09-13 13:00:00,58.6,52.8,29.83,NNW,338,2.4,2.4,81,0.00,CLR,,0.00,WeatherDisplay:10.37,2013-09-13 17:00:00,
2013-09-13 13:05:00,57.6,51.8,29.84,NNW,338,1.2,4.6,81,0.01,RA,,0.01,WeatherDisplay:10.37,2013-09-13 17:05:00,
2013-09-13 13:10:00,57.4,51.6,29.84,North,0,5.5,5.8,81,0.01,RA,,0.01,WeatherDisplay:10.37,2013-09-13 17:10:00,
2013-09-13 13:15:00,56.5,51.1,29.84,NW,315,2.5,2.5,82,0.02,RA,,0.02,WeatherDisplay:10.37,2013-09-13 17:15:00,
2013-09-13 13:20:00,56.1,50.7,29.83,NNW,338,1.5,2.3,82,0.02,RA,,0.03,WeatherDisplay:10.37,2013-09-13 17:20:00,
2013-09-13 13:25:00,56.3,50.9,29.83,WNW,292,0.0,0.0,82,0.03,RA,,0.03,WeatherDisplay:10.37,2013-09-13 17:25:00,
2013-09-13 13:30:00,56.5,51.4,29.83,WNW,292,0.6,1.1,83,0.03,RA,,0.03,WeatherDisplay:10.37,2013-09-13 17:30:00,
2013-09-13 13:35:00,56.8,52.1,29.83,WSW,248,2.4,3.5,84,0.03,CLR,,0.03,WeatherDisplay:10.37,2013-09-13 17:35:00,
2013-09-13 13:40:00,57.2,52.4,29.83,NW,315,3.1,3.1,84,0.03,CLR,,0.03,WeatherDisplay:10.37,2013-09-13 17:40:00,
2013-09-13 13:45:00,57.9,53.1,29.83,NNW,338,2.8,5.8,84,0.03,CLR,,0.03,WeatherDisplay:10.37,2013-09-13 17:45:00,
2013-09-13 13:50:00,58.1,53.0,29.83,WNW,292,4.6,4.6,83,0.03,CLR,,0.03,WeatherDisplay:10.37,2013-09-13 17:50:00,
2013-09-13 13:55:00,58.5,53.3,29.82,NW,315,7.6,8.1,83,0.03,CLR,,0.03,WeatherDisplay:10.37,2013-09-13 17:55:00,
2013-09-13 14:00:00,59.0,53.8,29.82,North,0,3.1,4.6,83,0.03,CLR,,0.03,WeatherDisplay:10.37,2013-09-13 18:00:00,
2013-09-13 14:05:00,59.5,54.0,29.82,WSW,248,4.6,8.1,82,0.02,CLR,,0.03,WeatherDisplay:10.37,2013-09-13 18:05:00,
2013-09-13 14:10:00,59.7,53.2,29.82,West,270,7.3,10.4,79,0.02,CLR,,0.03,WeatherDisplay:10.37,2013-09-13 18:10:00,
2013-09-13 14:15:00,59.2,52.7,29.83,WNW,292,3.1,9.2,79,0.01,CLR,,0.03,WeatherDisplay:10.37,2013-09-13 18:15:00,
2013-09-13 14:20:00,58.6,52.1,29.83,NW,315,5.2,5.2,79,0.01,CLR,,0.03,WeatherDisplay:10.37,2013-09-13 18:20:00,
2013-09-13 14:25:00,57.7,51.9,29.83,West,270,7.6,7.6,81,0.00,CLR,,0.04,WeatherDisplay:10.37,2013-09-13 18:25:00,
2013-09-13 14:30:00,57.2,51.4,29.84,NW,315,1.5,8.1,81,0.02,RA,,0.05,WeatherDisplay:10.37,2013-09-13 18:30:00,
2013-09-13 14:35:00,56.5,50.7,29.84,NW,315,0.9,5.8,81,0.03,RA,,0.06,WeatherDisplay:10.37,2013-09-13 18:35:00,
2013-09-13 14:40:00,56.1,50.7,29.84,North,0,1.8,2.3,82,0.03,RA,,0.06,WeatherDisplay:10.37,2013-09-13 18:40:00,
2013-09-13 14:45:00,55.9,50.5,29.84,WNW,292,0.6,1.1,82,0.03,,,0.06,WeatherDisplay:10.37,2013-09-13 18:45:00,
2013-09-13 14:50:00,56.3,50.9,29.84,North,0,1.8,2.3,82,0.03,CLR,,0.06,WeatherDisplay:10.37,2013-09-13 18:50:00,
2013-09-13 14:55:00,56.3,50.9,29.84,NW,315,1.2,1.2,82,0.03,CLR,,0.06,WeatherDisplay:10.37,2013-09-13 18:55:00,
2013-09-13 15:00:00,56.5,51.7,29.84,NW,315,2.8,2.8,84,0.03,CLR,,0.06,WeatherDisplay:10.37,2013-09-13 19:00:00,
2013-09-13 15:05:00,56.7,51.6,29.84,NW,315,8.4,8.4,83,0.03,CLR,,0.06,WeatherDisplay:10.37,2013-09-13 19:05:00,
2013-09-13 15:10:00,56.5,51.4,29.83,NNE,22,1.8,8.1,83,0.03,CLR,,0.06,WeatherDisplay:10.37,2013-09-13 19:10:00,
2013-09-13 15:15:00,56.7,51.6,29.84,NW,315,7.8,8.1,83,0.03,CLR,,0.06,WeatherDisplay:10.37,2013-09-13 19:15:00,
2013-09-13 15:20:00,57.0,51.9,29.84,NNW,338,2.8,3.5,83,0.03,CLR,,0.06,WeatherDisplay:10.37,2013-09-13 19:20:00,
2013-09-13 15:25:00,56.7,50.9,29.84,WNW,292,2.4,4.6,81,0.03,CLR,,0.06,WeatherDisplay:10.37,2013-09-13 19:25:00,
2013-09-13 15:30:00,56.7,51.2,29.84,NW,315,2.5,2.5,82,0.01,CLR,,0.06,WeatherDisplay:10.37,2013-09-13 19:30:00,
2013-09-13 15:35:00,56.5,50.7,29.84,WNW,292,1.8,2.3,81,0.00,CLR,,0.06,WeatherDisplay:10.37,2013-09-13 19:35:00,
2013-09-13 15:40:00,56.5,50.7,29.84,NNW,338,1.8,2.3,81,0.00,CLR,,0.06,WeatherDisplay:10.37,2013-09-13 19:40:00,
2013-09-13 15:45:00,56.5,50.7,29.84,NNW,338,1.2,1.2,81,0.00,CLR,,0.06,WeatherDisplay:10.37,2013-09-13 19:45:00,
2013-09-13 15:50:00,56.3,50.5,29.84,NW,315,2.1,2.3,81,0.00,CLR,,0.06,WeatherDisplay:10.37,2013-09-13 19:50:00,
2013-09-13 15:55:00,56.1,50.4,29.84,NNE,22,0.3,0.0,81,0.00,CLR,,0.06,WeatherDisplay:10.37,2013-09-13 19:55:00,
2013-09-13 16:00:00,56.1,50.4,29.84,NNE,22,1.8,2.3,81,0.00,CLR,,0.06,WeatherDisplay:10.37,2013-09-13 20:00:00,
2013-09-13 16:05:00,56.1,50.4,29.84,NW,315,0.6,1.1,81,0.00,CLR,,0.06,WeatherDisplay:10.37,2013-09-13 20:05:00,
2013-09-13 16:10:00,56.1,50.4,29.84,NW,315,0.6,1.1,81,0.00,CLR,,0.06,WeatherDisplay:10.37,2013-09-13 20:10:00,
2013-09-13 16:15:00,56.3,50.5,29.84,NW,315,3.7,3.7,81,0.00,CLR,,0.06,WeatherDisplay:10.37,2013-09-13 20:15:00,
2013-09-13 16:20:00,56.1,50.4,29.85,NW,315,0.9,3.5,81,0.00,CLR,,0.06,WeatherDisplay:10.37,2013-09-13 20:20:00,
2013-09-13 16:25:00,55.8,50.0,29.86,NW,315,6.4,6.9,81,0.01,RA,,0.07,WeatherDisplay:10.37,2013-09-13 20:25:00,
2013-09-13 16:30:00,55.4,49.3,29.86,NW,315,4.3,4.6,80,0.04,RA,,0.10,WeatherDisplay:10.37,2013-09-13 20:30:00,
2013-09-13 16:35:00,54.1,48.4,29.87,North,0,4.6,8.1,81,0.05,RA,,0.11,WeatherDisplay:10.37,2013-09-13 20:35:00,
2013-09-13 16:40:00,53.4,48.1,29.86,NNW,338,2.5,2.5,82,0.05,RA,,0.11,WeatherDisplay:10.37,2013-09-13 20:40:00,
2013-09-13 16:45:00,53.2,47.9,29.87,North,0,1.5,1.5,82,0.06,RA,,0.12,WeatherDisplay:10.37,2013-09-13 20:45:00,
2013-09-13 16:50:00,53.1,47.7,29.87,WNW,292,1.8,2.3,82,0.06,RA,,0.12,WeatherDisplay:10.37,2013-09-13 20:50:00,
2013-09-13 16:55:00,52.9,47.9,29.87,NW,315,2.4,2.4,83,0.06,CLR,,0.12,WeatherDisplay:10.37,2013-09-13 20:55:00,
2013-09-13 17:00:00,52.9,47.9,29.87,NNW,338,0.6,3.5,83,0.06,CLR,,0.12,WeatherDisplay:10.37,2013-09-13 21:00:00,
2013-09-13 17:05:00,52.5,47.8,29.87,WNW,292,1.5,3.5,84,0.06,CLR,,0.12,WeatherDisplay:10.37,2013-09-13 21:05:00,
2013-09-13 17:10:00,52.5,47.8,29.87,NW,315,3.1,3.1,84,0.06,CLR,,0.12,WeatherDisplay:10.37,2013-09-13 21:10:00,
2013-09-13 17:15:00,52.5,47.8,29.87,NW,315,1.5,3.5,84,0.06,CLR,,0.12,WeatherDisplay:10.37,2013-09-13 21:15:00,
2013-09-13 17:20:00,52.5,48.1,29.87,NW,315,1.5,3.5,85,0.06,CLR,,0.12,WeatherDisplay:10.37,2013-09-13 21:20:00,
2013-09-13 17:25:00,52.3,48.0,29.88,NW,315,0.6,1.1,85,0.06,RA,,0.13,WeatherDisplay:10.37,2013-09-13 21:25:00,
2013-09-13 17:30:00,52.3,48.0,29.88,NW,315,1.2,1.2,85,0.03,RA,,0.13,WeatherDisplay:10.37,2013-09-13 21:30:00,
2013-09-13 17:35:00,52.5,48.1,29.88,NNW,338,2.4,2.4,85,0.02,,,0.13,WeatherDisplay:10.37,2013-09-13 21:35:00,
2013-09-13 17:40:00,52.5,48.1,29.87,West,270,0.0,1.1,85,0.02,CLR,,0.13,WeatherDisplay:10.37,2013-09-13 21:40:00,
2013-09-13 17:45:00,52.5,48.1,29.87,NNW,338,1.5,1.5,85,0.01,CLR,,0.13,WeatherDisplay:10.37,2013-09-13 21:45:00,
2013-09-13 17:50:00,52.5,48.1,29.87,NNW,338,0.3,0.0,85,0.01,CLR,,0.13,WeatherDisplay:10.37,2013-09-13 21:50:00,
2013-09-13 17:55:00,52.5,48.5,29.87,NW,315,0.6,1.1,86,0.01,CLR,,0.13,WeatherDisplay:10.37,2013-09-13 21:55:00,
2013-09-13 18:00:00,52.7,48.6,29.87,WNW,292,0.9,2.3,86,0.01,CLR,,0.13,WeatherDisplay:10.37,2013-09-13 22:00:00,
2013-09-13 18:05:00,52.7,48.6,29.87,NW,315,0.6,1.1,86,0.01,CLR,,0.13,WeatherDisplay:10.37,2013-09-13 22:05:00,
2013-09-13 18:10:00,52.7,48.6,29.87,NW,315,1.2,1.2,86,0.01,CLR,,0.13,WeatherDisplay:10.37,2013-09-13 22:10:00,
2013-09-13 18:15:00,52.7,48.6,29.87,NW,315,3.1,3.5,86,0.01,CLR,,0.13,WeatherDisplay:10.37,2013-09-13 22:15:00,
2013-09-13 18:20:00,52.7,48.6,29.87,NW,315,4.3,4.3,86,0.01,CLR,,0.13,WeatherDisplay:10.37,2013-09-13 22:20:00,
2013-09-13 18:25:00,52.7,48.6,29.87,NW,315,1.2,4.6,86,0.00,CLR,,0.13,WeatherDisplay:10.37,2013-09-13 22:25:00,
2013-09-13 18:30:00,52.7,48.6,29.87,NNW,338,1.5,1.5,86,0.00,CLR,,0.13,WeatherDisplay:10.37,2013-09-13 22:30:00,
2013-09-13 18:35:00,52.7,48.6,29.87,NNW,338,1.5,4.6,86,0.00,CLR,,0.13,WeatherDisplay:10.37,2013-09-13 22:35:00,
2013-09-13 18:40:00,52.9,48.8,29.87,NNW,338,0.6,1.1,86,0.00,CLR,,0.13,WeatherDisplay:10.37,2013-09-13 22:40:00,
2013-09-13 18:45:00,52.9,48.8,29.87,WNW,292,3.1,3.5,86,0.00,CLR,,0.13,WeatherDisplay:10.37,2013-09-13 22:45:00,
2013-09-13 18:50:00,52.9,48.8,29.88,WNW,292,1.5,2.3,86,0.00,CLR,,0.13,WeatherDisplay:10.37,2013-09-13 22:50:00,
2013-09-13 18:55:00,52.9,48.8,29.88,NW,315,0.0,0.0,86,0.00,CLR,,0.13,WeatherDisplay:10.37,2013-09-13 22:55:00,
2013-09-13 19:00:00,52.9,48.8,29.88,WNW,292,0.0,2.3,86,0.00,CLR,,0.13,WeatherDisplay:10.37,2013-09-13 23:00:00,
2013-09-13 19:05:00,52.9,48.8,29.88,WNW,292,2.4,2.4,86,0.00,CLR,,0.13,WeatherDisplay:10.37,2013-09-13 23:05:00,
2013-09-13 19:10:00,52.9,48.8,29.88,North,0,2.4,3.5,86,0.00,CLR,,0.13,WeatherDisplay:10.37,2013-09-13 23:10:00,
2013-09-13 19:15:00,52.7,48.6,29.88,NNW,338,7.0,7.0,86,0.00,CLR,,0.13,WeatherDisplay:10.37,2013-09-13 23:15:00,
2013-09-13 19:20:00,52.7,48.6,29.88,NW,315,5.2,5.2,86,0.00,CLR,,0.13,WeatherDisplay:10.37,2013-09-13 23:20:00,
2013-09-13 19:25:00,52.5,48.5,29.88,North,0,2.4,6.9,86,0.00,CLR,,0.13,WeatherDisplay:10.37,2013-09-13 23:25:00,
2013-09-13 19:30:00,52.3,48.3,29.88,North,0,2.4,2.4,86,0.00,CLR,,0.13,WeatherDisplay:10.37,2013-09-13 23:30:00,
2013-09-13 19:35:00,52.2,48.1,29.88,NW,315,2.5,2.5,86,0.00,CLR,,0.13,WeatherDisplay:10.37,2013-09-13 23:35:00,
2013-09-13 19:40:00,52.0,47.9,29.89,NNW,338,2.1,2.3,86,0.00,CLR,,0.13,WeatherDisplay:10.37,2013-09-13 23:40:00,
2013-09-13 19:45:00,52.0,47.9,29.89,WNW,292,2.8,2.8,86,0.00,CLR,,0.13,WeatherDisplay:10.37,2013-09-13 23:45:00,
2013-09-13 19:50:00,51.8,47.7,29.90,NNW,338,1.2,1.2,86,0.00,CLR,,0.13,WeatherDisplay:10.37,2013-09-13 23:50:00,
2013-09-13 19:55:00,51.6,47.6,29.90,NNW,338,0.9,1.1,86,0.00,CLR,,0.13,WeatherDisplay:10.37,2013-09-13 23:55:00,
2013-09-13 20:00:00,51.4,47.4,29.90,NNW,338,0.6,1.1,86,0.00,CLR,,0.13,WeatherDisplay:10.37,2013-09-14 00:00:00,
2013-09-13 20:05:00,51.4,47.4,29.90,NNW,338,3.4,3.4,86,0.00,CLR,,0.13,WeatherDisplay:10.37,2013-09-14 00:05:00,
2013-09-13 20:10:00,51.4,47.4,29.90,NW,315,3.1,3.5,86,0.00,CLR,,0.13,WeatherDisplay:10.37,2013-09-14 00:10:00,
2013-09-13 20:15:00,51.4,47.4,29.91,NNW,338,3.1,3.1,86,0.00,CLR,,0.13,WeatherDisplay:10.37,2013-09-14 00:15:00,
2013-09-13 20:20:00,51.4,47.4,29.91,NNW,338,3.1,3.5,86,0.00,CLR,,0.13,WeatherDisplay:10.37,2013-09-14 00:20:00,
2013-09-13 20:25:00,51.3,46.9,29.91,North,0,1.5,1.5,85,0.00,CLR,,0.13,WeatherDisplay:10.37,2013-09-14 00:25:00,
2013-09-13 20:30:00,51.1,46.7,29.91,NW,315,2.8,2.8,85,0.00,CLR,,0.13,WeatherDisplay:10.37,2013-09-14 00:30:00,
2013-09-13 20:35:00,50.7,46.4,29.91,NW,315,0.6,4.6,85,0.00,CLR,,0.13,WeatherDisplay:10.37,2013-09-14 00:35:00,
2013-09-13 20:40:00,50.5,46.2,29.92,NW,315,1.2,2.3,85,0.00,CLR,,0.13,WeatherDisplay:10.37,2013-09-14 00:40:00,
2013-09-13 20:45:00,50.4,46.0,29.92,NW,315,3.1,3.1,85,0.00,CLR,,0.13,WeatherDisplay:10.37,2013-09-14 00:45:00,
2013-09-13 20:50:00,50.4,46.0,29.92,NW,315,2.4,2.4,85,0.00,CLR,,0.13,WeatherDisplay:10.37,2013-09-14 00:50:00,
2013-09-13 20:55:00,50.2,45.8,29.92,NNW,338,0.3,5.8,85,0.00,CLR,,0.13,WeatherDisplay:10.37,2013-09-14 00:55:00,
2013-09-13 21:00:00,50.0,45.7,29.92,NW,315,2.1,2.3,85,0.00,CLR,,0.13,WeatherDisplay:10.37,2013-09-14 01:00:00,
2013-09-13 21:05:00,49.8,45.5,29.92,North,0,1.8,1.8,85,0.00,CLR,,0.13,WeatherDisplay:10.37,2013-09-14 01:05:00,
2013-09-13 21:10:00,49.6,45.3,29.92,NNW,338,2.5,3.5,85,0.00,CLR,,0.13,WeatherDisplay:10.37,2013-09-14 01:10:00,
2013-09-13 21:15:00,49.5,44.8,29.92,NW,315,1.5,2.3,84,0.00,CLR,,0.13,WeatherDisplay:10.37,2013-09-14 01:15:00,
2013-09-13 21:20:00,49.3,44.6,29.93,NW,315,0.6,1.1,84,0.00,CLR,,0.13,WeatherDisplay:10.37,2013-09-14 01:20:00,
2013-09-13 21:25:00,49.1,44.5,29.92,NW,315,1.5,3.5,84,0.00,CLR,,0.13,WeatherDisplay:10.37,2013-09-14 01:25:00,
2013-09-13 21:30:00,48.9,44.3,29.93,NNW,338,2.5,2.5,84,0.00,CLR,,0.13,WeatherDisplay:10.37,2013-09-14 01:30:00,
2013-09-13 21:35:00,48.7,44.1,29.93,NW,315,0.6,1.1,84,0.00,CLR,,0.13,WeatherDisplay:10.37,2013-09-14 01:35:00,
2013-09-13 21:40:00,48.7,44.1,29.93,NW,315,3.1,3.5,84,0.00,CLR,,0.13,WeatherDisplay:10.37,2013-09-14 01:40:00,
2013-09-13 21:45:00,48.6,43.9,29.94,WNW,292,2.8,2.8,84,0.00,CLR,,0.13,WeatherDisplay:10.37,2013-09-14 01:45:00,
2013-09-13 21:50:00,48.4,43.8,29.93,NW,315,2.4,2.4,84,0.00,CLR,,0.13,WeatherDisplay:10.37,2013-09-14 01:50:00,
2013-09-13 21:55:00,48.4,43.8,29.94,NNW,338,1.5,2.3,84,0.00,CLR,,0.13,WeatherDisplay:10.37,2013-09-14 01:55:00,
2013-09-13 22:00:00,48.2,43.6,29.94,WNW,292,3.1,6.9,84,0.00,CLR,,0.13,WeatherDisplay:10.37,2013-09-14 02:00:00,
2013-09-13 22:05:00,48.0,43.4,29.94,WNW,292,0.6,5.8,84,0.00,CLR,,0.13,WeatherDisplay:10.37,2013-09-14 02:05:00,
2013-09-13 22:10:00,48.0,43.4,29.94,WNW,292,0.6,2.3,84,0.00,CLR,,0.13,WeatherDisplay:10.37,2013-09-14 02:10:00,
2013-09-13 22:15:00,47.8,43.2,29.94,NW,315,0.6,1.1,84,0.00,CLR,,0.13,WeatherDisplay:10.37,2013-09-14 02:15:00,
2013-09-13 22:20:00,47.7,43.1,29.94,WNW,292,0.6,3.5,84,0.00,CLR,,0.13,WeatherDisplay:10.37,2013-09-14 02:20:00,
2013-09-13 22:25:00,47.5,42.9,29.94,NW,315,1.8,2.3,84,0.00,CLR,,0.13,WeatherDisplay:10.37,2013-09-14 02:25:00,
2013-09-13 22:30:00,47.5,43.2,29.94,NW,315,1.5,1.5,85,0.00,CLR,,0.13,WeatherDisplay:10.37,2013-09-14 02:30:00,
2013-09-13 22:35:00,47.5,43.2,29.95,NNW,338,0.6,1.1,85,0.00,CLR,,0.13,WeatherDisplay:10.37,2013-09-14 02:35:00,
2013-09-13 22:40:00,47.3,43.0,29.95,NW,315,2.8,2.8,85,0.00,CLR,,0.13,WeatherDisplay:10.37,2013-09-14 02:40:00,
2013-09-13 22:45:00,47.3,43.0,29.95,North,0,0.6,1.1,85,0.00,CLR,,0.13,WeatherDisplay:10.37,2013-09-14 02:45:00,
2013-09-13 22:50:00,47.1,42.8,29.95,North,0,0.6,1.1,85,0.00,CLR,,0.13,WeatherDisplay:10.37,2013-09-14 02:50:00,
2013-09-13 22:55:00,47.1,42.8,29.95,NNW,338,0.0,0.0,85,0.00,CLR,,0.13,WeatherDisplay:10.37,2013-09-14 02:55:00,
2013-09-13 23:00:00,47.1,42.8,29.95,NW,315,0.6,1.1,85,0.00,CLR,,0.13,WeatherDisplay:10.37,2013-09-14 03:00:00,
2013-09-13 23:05:00,47.1,42.8,29.95,NW,315,0.3,1.1,85,0.00,CLR,,0.13,WeatherDisplay:10.37,2013-09-14 03:05:00,
2013-09-13 23:10:00,47.1,42.8,29.95,NW,315,0.0,2.3,85,0.00,CLR,,0.13,WeatherDisplay:10.37,2013-09-14 03:10:00,
2013-09-13 23:15:00,47.1,42.8,29.95,NW,315,0.0,0.0,85,0.00,CLR,,0.13,WeatherDisplay:10.37,2013-09-14 03:15:00,
2013-09-13 23:20:00,47.1,42.8,29.95,NW,315,1.2,1.2,85,0.00,CLR,,0.13,WeatherDisplay:10.37,2013-09-14 03:20:00,
2013-09-13 23:25:00,47.1,42.8,29.95,NW,315,0.0,0.0,85,0.00,CLR,,0.13,WeatherDisplay:10.37,2013-09-14 03:25:00,
2013-09-13 23:30:00,47.1,42.8,29.95,NW,315,1.2,1.2,85,0.00,CLR,,0.13,WeatherDisplay:10.37,2013-09-14 03:30:00,
2013-09-13 23:35:00,46.9,42.7,29.95,NW,315,0.9,1.1,85,0.00,CLR,,0.13,WeatherDisplay:10.37,2013-09-14 03:35:00,
2013-09-13 23:40:00,46.9,42.7,29.95,NNW,338,1.5,1.5,85,0.00,CLR,,0.13,WeatherDisplay:10.37,2013-09-14 03:40:00,
2013-09-13 23:45:00,46.9,42.7,29.95,NW,315,0.6,4.6,85,0.00,CLR,,0.13,WeatherDisplay:10.37,2013-09-14 03:45:00,
2013-09-13 23:50:00,46.8,42.5,29.95,NNW,338,1.5,3.5,85,0.00,CLR,,0.13,WeatherDisplay:10.37,2013-09-14 03:50:00,
2013-09-13 23:55:00,46.8,42.5,29.95,NW,315,1.5,1.5,85,0.00,CLR,,0.13,WeatherDisplay:10.37,2013-09-14 03:55:00,